#timestamp,LO_Frequency,Hit,StdDev 
1552978815.3,286046998.6,P
1552978835.1,286046999.5,N
1552978836.0,286046999.5,N
1552978855.8,286046997.2,Y
1552978875.7,286046996.9,P
1552978895.5,286046997.0,P
1552978915.3,286046997.6,N
1552978935.2,286046997.8,N
1552978955.0,286046998.0,N
1552978955.9,286046998.0,Y
1552978975.8,286047000.0,P
1552978995.6,286046998.3,N
1552979015.4,286046999.6,N
1552979035.3,286046999.3,N
1552979055.1,286047000.8,N
1552979075.9,286047000.9,N
1552979095.7,286047001.0,N
1552979115.5,286047001.1,N
1552979135.4,286047001.0,N
1552979155.2,286047000.6,N
1552979175.0,286046999.9,N
1552979175.9,286046999.9,N
1552979195.8,286046998.1,N
1552979215.6,286046998.8,N
1552979235.5,286046998.6,N
1552979255.3,286046998.4,N
1552979275.1,286046998.9,N
1552979295.9,286046996.6,Y
1552979315.7,286046996.5,P
1552979335.5,286046997.7,N
1552979355.4,286046995.6,P
1552979375.2,286046995.6,N
1552979395.1,286046993.7,Y
1552979396.0,286046993.7,P
1552979415.8,286046997.1,N
1552979435.6,286046997.9,N
1552979455.5,286046998.4,N
1552979475.3,286047002.1,N
1552979495.2,286047003.8,N
1552979515.9,286047004.0,N
1552979535.7,286047004.1,N
1552979555.6,286047003.0,N
1552979575.4,286047004.4,N
1552979595.2,286047003.9,N
1552979615.1,286047001.4,N
1552979616.0,286047001.4,N
1552979635.8,286047004.1,N
1552979655.7,286047001.9,N
1552979675.5,286047002.5,N
1552979695.3,286047000.9,N
1552979715.2,286047000.8,N
1552979735.0,286047002.4,N
1552979735.9,286047002.4,N
1552979755.8,286046999.7,N
1552979775.6,286047002.2,N
1552979795.4,286047002.0,N
1552979815.3,286046999.8,N
1552979835.1,286047000.1,N
1552979855.9,286047000.1,N
1552979875.7,286047002.2,N
1552979895.5,286047001.8,N
1552979915.4,286047002.8,N
1552979935.2,286046999.9,N
1552979955.0,286047000.5,N
1552979955.9,286047000.5,N
1552979975.8,286046998.2,N
1552979995.6,286047000.7,N
1552980015.5,286047000.9,N
1552980035.3,286046998.8,N
1552980055.1,286046999.1,N
1552980075.9,286046999.4,N
1552980095.7,286046996.5,N
1552980115.5,286046997.7,N
1552980135.4,286046996.8,N
1552980155.2,286046997.7,N
1552980175.1,286046996.9,N
1552980176.0,286046996.9,N
1552980195.8,286046997.4,N
1552980215.6,286046994.9,N
1552980235.5,286046996.6,N
1552980255.3,286046997.0,N
1552980275.1,286046997.6,N
1552980295.9,286046997.2,N
1552980315.7,286046996.6,N
1552980335.6,286046999.5,N
1552980355.4,286046998.6,N
1552980375.2,286046998.6,N
1552980395.1,286047001.2,N
1552980396.0,286047001.2,N
1552980415.8,286046998.2,N
1552980435.6,286046998.8,N
1552980455.5,286046999.7,N
1552980475.3,286047000.3,N
1552980495.2,286047000.7,N
1552980515.9,286047001.6,N
1552980535.7,286047004.2,N
1552980555.6,286047003.3,N
1552980575.4,286047001.7,N
1552980595.2,286047003.8,N
1552980615.1,286047003.0,N
1552980616.0,286047003.0,N
1552980635.8,286047001.3,N
1552980655.7,286047001.6,N
1552980675.5,286047001.9,N
1552980695.3,286047002.6,N
1552980715.2,286047000.2,N
1552980735.0,286047002.2,N
1552980735.9,286047002.2,N
1552980755.8,286047000.9,N
1552980775.6,286047001.1,N
1552980795.4,286047002.8,N
1552980815.3,286047001.7,N
1552980835.1,286047005.9,Y
1552980855.8,286047005.0,P
1552980875.7,286047008.8,P
1552980895.5,286047008.7,N
1552980915.4,286047010.4,Y
1552980935.2,286047005.2,P
1552980955.0,286047004.6,P
1552980955.9,286047004.6,P
1552980975.8,286047005.6,Y
1552980995.6,286046998.2,P
1552981015.5,286046999.3,N
1552981035.3,286046998.8,N
1552981055.1,286046997.2,N
1552981075.9,286046996.7,N
1552981095.7,286046995.5,N
1552981115.5,286046995.6,N
1552981135.4,286046996.0,N
1552981155.2,286046996.4,N
1552981175.1,286046993.5,N
1552981176.0,286046993.5,N
1552981195.8,286046992.3,N
1552981215.6,286046992.0,N
1552981235.5,286046994.2,N
1552981255.3,286046992.2,N
1552981275.1,286046992.5,N
1552981295.9,286046993.1,N
1552981315.7,286046993.1,N
1552981335.5,286046993.2,N
1552981355.4,286046992.6,N
1552981375.2,286046991.0,N
1552981395.1,286046989.1,Y
1552981396.0,286046989.1,P
1552981415.8,286046996.4,N
1552981435.6,286046994.6,N
1552981455.5,286046991.8,N
1552981475.3,286046992.7,N
1552981495.1,286046993.2,N
1552981515.9,286046991.0,Y
1552981535.7,286046999.5,P
1552981555.6,286047000.6,N
1552981575.4,286046999.8,N
1552981595.2,286047001.6,N
1552981615.1,286047001.6,N
1552981616.0,286047001.6,N
1552981635.8,286047003.4,N
1552981655.6,286047007.6,N
1552981675.5,286047009.0,N
1552981695.3,286047010.8,N
1552981715.2,286047010.1,N
1552981735.9,286047011.4,N
1552981755.7,286047012.1,N
1552981775.6,286047013.6,N
1552981795.4,286047014.4,N
1552981815.2,286047015.4,N
1552981835.1,286047012.5,N
1552981836.0,286047012.5,N
1552981855.8,286047013.9,N
1552981875.7,286047010.9,N
1552981895.5,286047012.8,N
1552981915.3,286047013.1,N
1552981935.2,286047014.8,N
1552981955.0,286047014.5,N
1552981955.9,286047014.5,N
1552981975.7,286047016.9,N
1552981995.6,286047015.9,N
1552982015.4,286047018.8,Y
1552982035.3,286047009.0,P
1552982055.1,286047010.7,P
1552982056.0,286047010.7,P
1552982075.8,286047007.7,Y
1552982095.7,286046998.5,P
1552982115.5,286047001.0,N
1552982135.3,286047000.8,N
1552982155.2,286047000.1,N
1552982175.0,286047000.7,N
1552982175.9,286047000.7,N
1552982195.8,286047001.1,N
1552982215.6,286047000.5,N
1552982235.4,286046998.1,N
1552982255.3,286047000.8,N
1552982275.1,286047000.3,N
1552982295.8,286047002.7,N
1552982315.7,286047000.1,N
1552982335.5,286046999.8,N
1552982355.4,286047002.5,N
1552982375.2,286047000.9,N
1552982395.0,286046998.6,N
1552982395.9,286046998.6,N
